DMSP 5D-2 F11 DEB, 28349

Orbit data source: Space-Track

DMSP 5D-2 F11 DEB, 28349 is space debris in SSO originally from a launch on Thu, 28 Nov 1991 UTC launched from the Air Force Western Test Range (AFWTR). Debris objects in space refer to the collection of defunct objects orbiting the Earth. Examples of debris include non-operational satellites, rocket bodies, and fragments generated from explosions, collisions, or faulty payload assembly.

Loading next visibility...
Identifier
28349, 1991-082BN
Orbit
SSO
Country
Flag of USUS
Related business
Manufacturer
Unknown
Mission
Spacecraft
Bus & Motor
Unknown
Mass
Unknown
Launch date (UTC)
1991-11-28 (34 years ago)
Launch vehicle
Unknown
Launch site
Air Force Western Test Range (AFWTR)
Object type
Payload
Rocket body
Debris
Shape & HBR
Unknown shape, 0.1 m
Radar Cross Section
Small (<0.1 m²)

Expand to show TLE details & history
Last TLE update: 22 hours ago

TLE from 22 hours ago
0 DMSP 5D-2 F11 DEB
1 28349U 91082BN  25349.48500653  .00007696  00000-0  19557-2 0  9997
2 28349  98.8721  64.4961 0051704 187.2826 188.4226 14.50217405113784
Epoch: 2025-12-15T11:38Z
TLE epoch observation values (Epoch: 2025-12-15T11:38:24.564Z)
Latitude
15.40495°
Longitude
163.0589°
Altitude
763.536 km
Speed
7.455 km/s
True Right ascension
04h 08m 10s
True Declination
15° 19' 02"
Sunlit
Object was in full shadow at epoch
Visualization orbit readout
Latitude
Unknown
Longitude
Unknown
Altitude
Unknown
Speed
Unknown
Apparent Right ascension
Unknown
Apparent Declination
Unknown
Sunlit
N/A
Visualization observer readout
Local Sidereal Time
08:36:25
Azimuth
Unknown
Elevation
Unknown
Doppler factor
Unknown
Orbital elements
Apogee altitude
758.776 km
Perigee altitude
685.354 km
Semi-major axis
7,100.202 km
Eccentricity
0.00517
Inclination
98.8721°
RAAN
64.4961°
Arg. of periapsis
187.2826°
True anomaly
188.33637°
Mean anomaly
188.4226°
Eccentric anomaly
188.37943°
Mean motion
3.62775 °/min
Orbital period
99.24 mins
BSTAR
0.0019557
Loading maneuver chart data...
Computing Atmospheric mass density...

Documentation

Showing up to 5 results
|